Portada
METAR-TAF:

METAR-TAF

Aeroports :

Independence Municipal Airport

Independence, Iowa, Estats Units d'Amèrica

latitud: 42-27N, longitud: 091-56W, altitud: 298 m

Observació

L'informe es va fer fa 20 minuts, a les 18:15 UTC
Vent 12 kt del Oest
Temperatura -5°C
Humitat 100%
Pressió 1023 hPa
Visibilitat: 6.4 km
Cel cobert a una alçada de 400 ft
boirina

METAR: KIIB 101815Z AUTO 26012KT 4SM BR OVC004 M05/M05 A3021 RMK AO2 T10471055

Hora: 12:35 (18:35 UTC)


TAF: manca

Observacions i pronòstics meteorològics de més de 4000 aeroports (METAR i TAF).

Les estacions disponibles són els punts grocs i vermells al mapa.

Posi el ratolí al punt desitjat per veure el nom de l'estació.

Feu clic per veure les observacions i els pronòstics meteorològics.

Per canviar el mapa: feu clic els botons verds amb una creu de color negre per apropar; al botó verd amb un guió per allunyar la imatge; o en les fletxes verdes per a mapes adjacents.


METAR-TAF: